Weather History for Jefferson, NC

Change the Weather History Date:

Thursday, January 3, 2002

  Actual Average Record
Temperature  
Mean Temperature 20 °F -  
Max Temperature 23 °F 44 °F 66 °F (2004)
Min Temperature 17 °F 24 °F -2 °F (1979)
Degree Days  
Heating Degree Days 45    
Moisture  
Dew Point 6 °F    
Average Humidity 55    
Maximum Humidity 86    
Minimum Humidity 33    
Precipitation  
Precipitation 0.00 in - - ()
Sea Level Pressure  
Sea Level Pressure 29.88 in    
Wind  
Wind Speed 7 mph (NNW)    
Max Wind Speed 23 mph    
Max Gust Speed 38 mph    
Visibility 9 miles    
Events Snow    
Averages and records for this station are not official NWS values.
T = Trace of Precipitation, MM = Missing Value Source: NWS Daily Summary

Daily Weather History Graph

Daily Weather History Graph

Search for Another Location

Airport:

Trip Planner

Search our weather history database for the weather conditions in past years. The results will help you decide how hot, cold, wet, or windy it might be!

Date:

Astronomy

Jan. 03, 2002 Rise Set
Actual Time 7:37 AM EST 5:22 PM EST
Civil Twilight 7:09 AM EST 5:51 PM EST
Nautical Twilight 6:37 AM EST 6:23 PM EST
Astronomical Twilight 6:05 AM EST 6:54 PM EST
Moon 10:21 PM EST (1/3) 11:03 AM EST (1/3)
Length of Visible Light 10h 42m
Length of Day
9h 45m
Waning Gibbous, 77% of the Moon is Illuminated
Jan 3
Waning Gibbous
Jan 5
Last Quarter
Jan 13
New
Jan 21
First Quarter
Jan 28
Full

Hourly Weather History & Observations

Time (EST) Temp. Windchill Dew Point Humidity Pressure Visibility Wind Dir Wind Speed Gust Speed Precip Events Conditions
12:00 AM 19.4 °F - 5.0 °F 54% 29.97 in 10.0 mi Calm Calm - N/A   Overcast
12:20 AM 19.4 °F - 5.0 °F 54% 29.97 in 10.0 mi Calm Calm - N/A   Overcast
12:40 AM 21.2 °F 14.9 °F 5.0 °F 50% 29.95 in 10.0 mi North 4.6 mph - N/A   Mostly Cloudy
1:02 AM 19.4 °F 12.8 °F 6.8 °F 58% 29.94 in 10.0 mi North 4.6 mph - N/A   Overcast
1:20 AM 19.4 °F 11.5 °F 8.6 °F 63% 29.93 in 10.0 mi North 5.8 mph - N/A   Mostly Cloudy
1:40 AM 19.4 °F 12.8 °F 6.8 °F 58% 29.93 in 10.0 mi North 4.6 mph - N/A   Overcast
2:02 AM 21.2 °F 16.4 °F 5.0 °F 50% 29.93 in 10.0 mi North 3.5 mph - N/A   Overcast
2:23 AM 21.2 °F 13.6 °F 5.0 °F 50% 29.92 in 10.0 mi North 5.8 mph - N/A   Overcast
2:40 AM 21.2 °F 14.9 °F 3.2 °F 46% 29.92 in 10.0 mi North 4.6 mph - N/A   Overcast
3:00 AM 23.0 °F 13.9 °F 3.2 °F 43% 29.91 in 10.0 mi North 8.1 mph - N/A   Overcast
3:20 AM 23.0 °F 15.8 °F 1.4 °F 39% 29.90 in 10.0 mi North 5.8 mph - N/A   Overcast
3:42 AM 23.0 °F 15.8 °F 1.4 °F 39% 29.89 in 10.0 mi North 5.8 mph - N/A   Overcast
4:01 AM 23.0 °F 17.0 °F -0.4 °F 36% 29.89 in 10.0 mi North 4.6 mph - N/A   Overcast
4:24 AM 23.0 °F 14.7 °F -0.4 °F 36% 29.89 in 10.0 mi North 6.9 mph - N/A   Overcast
4:44 AM 23.0 °F 15.8 °F -0.4 °F 36% 29.87 in 10.0 mi North 5.8 mph - N/A   Overcast
5:02 AM 23.0 °F 14.7 °F -0.4 °F 36% 29.87 in 10.0 mi North 6.9 mph - N/A   Overcast
5:20 AM 23.0 °F 14.7 °F -2.2 °F 33% 29.88 in 10.0 mi North 6.9 mph - N/A   Overcast
5:40 AM 23.0 °F 15.8 °F -0.4 °F 36% 29.88 in 10.0 mi North 5.8 mph - N/A   Overcast
6:04 AM 23.0 °F 15.8 °F -2.2 °F 33% 29.87 in 10.0 mi North 5.8 mph - N/A   Overcast
6:22 AM 23.0 °F 15.8 °F 1.4 °F 39% 29.86 in 10.0 mi NNE 5.8 mph - N/A   Overcast
6:43 AM 23.0 °F 13.9 °F 1.4 °F 39% 29.86 in 10.0 mi North 8.1 mph - N/A   Overcast
7:04 AM 23.0 °F 13.9 °F 1.4 °F 39% 29.86 in 10.0 mi North 8.1 mph - N/A   Overcast
7:23 AM 23.0 °F 13.9 °F 1.4 °F 39% 29.86 in 10.0 mi North 8.1 mph - N/A   Overcast
7:40 AM 23.0 °F 14.7 °F -0.4 °F 36% 29.86 in 10.0 mi North 6.9 mph - N/A   Overcast
8:02 AM 23.0 °F 14.7 °F -0.4 °F 36% 29.85 in 10.0 mi NNE 6.9 mph - N/A   Overcast
8:20 AM 21.2 °F 13.6 °F -0.4 °F 39% 29.86 in 10.0 mi North 5.8 mph - N/A   Overcast
8:44 AM 21.2 °F 11.7 °F 1.4 °F 42% 29.88 in 10.0 mi North 8.1 mph - N/A   Overcast
9:00 AM 21.2 °F 10.9 °F 1.4 °F 42% 29.88 in 10.0 mi North 9.2 mph - N/A   Overcast
9:23 AM 21.2 °F 11.7 °F 1.4 °F 42% 29.89 in 10.0 mi North 8.1 mph - N/A   Overcast
9:40 AM 21.2 °F 9.5 °F 1.4 °F 42% 29.89 in 10.0 mi North 11.5 mph 16.1 mph N/A   Overcast
10:02 AM 21.2 °F 7.3 °F 6.8 °F 54% 29.89 in 3.0 mi North 16.1 mph 21.9 mph N/A Snow Light Snow
10:23 AM 19.4 °F 7.9 °F 8.6 °F 63% 29.89 in 2.0 mi North 10.4 mph 17.3 mph N/A Snow Light Snow
10:40 AM 19.4 °F 9.5 °F 12.2 °F 74% 29.88 in 1.0 mi North 8.1 mph - N/A Snow Light Snow
11:00 AM 19.4 °F 8.6 °F 12.2 °F 74% 29.87 in 1.0 mi North 9.2 mph 16.1 mph N/A Snow Light Snow
11:20 AM 19.4 °F 10.4 °F 12.2 °F 74% 29.86 in 2.5 mi North 6.9 mph - N/A Snow Light Snow
11:43 AM 19.4 °F 11.5 °F 12.2 °F 74% 29.85 in 4.0 mi North 5.8 mph - N/A Snow Light Snow
12:05 PM 19.4 °F 11.5 °F 15.8 °F 86% 29.84 in 3.0 mi NNW 5.8 mph - N/A Snow Light Snow
12:20 PM 21.2 °F 11.7 °F 10.4 °F 63% 29.83 in 10.0 mi NNW 8.1 mph - N/A   Overcast
1:00 PM 19.4 °F 7.9 °F 12.2 °F 74% 29.82 in 1.5 mi NW 10.4 mph 17.3 mph N/A Snow Light Snow
1:20 PM 19.4 °F 10.4 °F 12.2 °F 74% 29.82 in 1.5 mi NNW 6.9 mph - N/A Snow Light Snow
1:43 PM 19.4 °F 7.9 °F 12.2 °F 74% 29.82 in 3.0 mi NW 10.4 mph 19.6 mph N/A Snow Light Snow
2:02 PM 19.4 °F 7.2 °F 10.4 °F 68% 29.82 in 4.0 mi NW 11.5 mph 19.6 mph N/A Snow Light Snow
2:23 PM 21.2 °F 10.1 °F 8.6 °F 58% 29.82 in 10.0 mi NNW 10.4 mph 17.3 mph N/A   Overcast
2:40 PM 19.4 °F 8.6 °F 8.6 °F 63% 29.82 in 10.0 mi NNW 9.2 mph 17.3 mph N/A   Overcast
3:02 PM 19.4 °F 7.2 °F 8.6 °F 63% 29.82 in 10.0 mi NW 11.5 mph 19.6 mph N/A   Overcast
3:20 PM 19.4 °F 7.2 °F 8.6 °F 63% 29.83 in 10.0 mi NNW 11.5 mph 17.3 mph N/A   Overcast
3:40 PM 19.4 °F 8.6 °F 10.4 °F 68% 29.84 in 3.0 mi NNW 9.2 mph 20.7 mph N/A Snow Light Snow
4:03 PM 19.4 °F 6.6 °F 10.4 °F 68% 29.84 in 10.0 mi NW 12.7 mph 23.0 mph N/A   Overcast
4:20 PM 19.4 °F 5.0 °F 8.6 °F 63% 29.85 in 10.0 mi NNW 16.1 mph 27.6 mph N/A   Overcast
4:40 PM 19.4 °F 6.6 °F 8.6 °F 63% 29.86 in 10.0 mi NNW 12.7 mph 21.9 mph N/A   Overcast
5:04 PM 19.4 °F 4.1 °F 6.8 °F 58% 29.86 in 10.0 mi NNW 18.4 mph 24.2 mph N/A   Overcast
5:20 PM 19.4 °F 5.5 °F 6.8 °F 58% 29.87 in 10.0 mi NNW 15.0 mph 24.2 mph N/A   Overcast
5:40 PM 19.4 °F 5.5 °F 6.8 °F 58% 29.87 in 10.0 mi NW 15.0 mph 24.2 mph N/A   Overcast
6:00 PM 19.4 °F 6.0 °F 6.8 °F 58% 29.88 in 10.0 mi NNW 13.8 mph 27.6 mph N/A   Overcast
6:20 PM 19.4 °F 4.1 °F 6.8 °F 58% 29.89 in 10.0 mi NNW 18.4 mph 25.3 mph N/A   Overcast
6:40 PM 17.6 °F 0.5 °F 6.8 °F 63% 29.88 in 10.0 mi NW 21.9 mph 33.4 mph N/A   Overcast
7:02 PM 17.6 °F 3.2 °F 6.8 °F 63% 29.90 in 10.0 mi NW 15.0 mph 31.1 mph N/A   Overcast
7:20 PM 17.6 °F 0.1 °F 6.8 °F 63% 29.89 in 10.0 mi NW 23.0 mph 35.7 mph N/A   Overcast
7:40 PM 17.6 °F 0.5 °F 6.8 °F 63% 29.90 in 10.0 mi NW 21.9 mph 32.2 mph N/A   Overcast
8:02 PM 17.6 °F 1.3 °F 8.6 °F 68% 29.92 in 10.0 mi NW 19.6 mph 35.7 mph N/A   Overcast
8:23 PM 17.6 °F 1.7 °F 8.6 °F 68% 29.92 in 10.0 mi NNW 18.4 mph 32.2 mph N/A   Overcast
8:40 PM 17.6 °F 2.7 °F 8.6 °F 68% 29.93 in 10.0 mi NNW 16.1 mph 36.8 mph N/A   Overcast
9:03 PM 17.6 °F 0.9 °F 8.6 °F 68% 29.94 in 10.0 mi NW 20.7 mph 38.0 mph N/A   Mostly Cloudy
9:22 PM 17.6 °F 0.9 °F 8.6 °F 68% 29.94 in 10.0 mi NNW 20.7 mph 35.7 mph N/A   Scattered Clouds
9:43 PM 17.6 °F 0.9 °F 8.6 °F 68% 29.95 in 10.0 mi NW 20.7 mph 29.9 mph N/A   Scattered Clouds
10:00 PM 17.6 °F -1.3 °F 8.6 °F 68% 29.95 in 10.0 mi NW 27.6 mph 40.3 mph N/A   Clear
10:20 PM 17.6 °F 0.5 °F 10.4 °F 73% 29.97 in 10.0 mi NW 21.9 mph 34.5 mph N/A   Clear
10:40 PM 17.6 °F -0.3 °F 10.4 °F 73% 29.98 in 10.0 mi NNW 24.2 mph 33.4 mph N/A   Scattered Clouds
11:03 PM 17.6 °F 1.3 °F 8.6 °F 68% 29.99 in 10.0 mi NNW 19.6 mph 29.9 mph N/A Snow Light Snow
11:22 PM 17.6 °F 1.3 °F 8.6 °F 68% 29.99 in 10.0 mi NW 19.6 mph 27.6 mph N/A   Clear
11:40 PM 17.6 °F 3.7 °F 10.4 °F 73% 30.00 in 10.0 mi NNW 13.8 mph 29.9 mph N/A   Clear